Regional Weather Roundup
Issued by NWS

Home | Current Version | Previous Version | Text Only | Print | Product List | Glossary On
Versions: 1 2 3 4 5 6 7 8 9 10 11 12 13 14 15 16 17 18 19 20 21 22 23 24 25 26 27 28 29 30 31 32 33 34 35 36 37 38 39 40 41 42 43 44 45 46 47 48 49 50
000
ASUS43 KMPX 302010
RWRMN
WEATHER ROUNDUP FOR MINNESOTA
NATIONAL WEATHER SERVICE TWIN CITIES/CHANHASSEN MN
300 PM CDT THU OCT 30 2014


NOTE: "FAIR" INDICATES FEW OR NO CLOUDS BELOW 12,000 FEET WITH NO
SIGNIFICANT WEATHER AND/OR OBSTRUCTIONS TO VISIBILITY. N/A MEANS
CURRENT SKY AND/OR WEATHER CONDITIONS ARE NOT AVAILABLE.

MNZ060>063-068>070-302100-
   Twin Cities Metro

CITY           SKY/WX    TMP DP  RH WIND       PRES   REMARKS
TWIN CITIES    CLOUDY    48  35  60 N9        30.10S
ST PAUL        CLOUDY    47  36  65 N9        30.11S
CRYSTAL        CLOUDY    49  36  61 N8        30.10S
BLAINE         CLOUDY    48  37  66 N9        30.10S
LAKEVILLE      PTSUNNY   46  37  71 N6        30.09S
EDEN PRAIRIE   CLOUDY    49  36  61 N9        30.09S
SOUTH ST PAUL  PTSUNNY   49  36  59 N8        30.10S
LAKE ELMO      CLOUDY    46  36  66 N7        30.10S
$$
MNZ001>005-007-008-013>017-022>024-027-028-302100-
   Northwest Minnesota

CITY           SKY/WX    TMP DP  RH WIND       PRES   REMARKS
BEMIDJI        LGT SNOW  34  32  92 NW14      30.21R WCI  25
HALLOCK        SUNNY     37  21  52 N24G32    30.35S
ROSEAU         PTSUNNY   37  21  52 N25G31    30.30R
WARROAD        MOSUNNY   36  21  55 NW17G31   30.29R
THIEF RVR FALL CLOUDY    36  25  64 N24G30    30.31R
CROOKSTON      CLOUDY    36  27  69 N25G32    30.34R
FOSSTON        CLOUDY    34  28  80 N24G30    30.27R WCI  21
DETROIT LAKES  CLOUDY    36  32  87 N12G26    30.26R
MOORHEAD       CLOUDY    37  34  87 N24G30    30.32R
PARK RAPIDS    CLOUDY    37  28  70 N17       30.20R
MAHNOMEN       CLOUDY    35  29  79 N16G25    30.26S WCI  25
$$
MNZ006-009>011-018-025>026-302100-
   North Central Minnesota

CITY           SKY/WX    TMP DP  RH WIND       PRES   REMARKS
BAUDETTE       MOSUNNY   36  23  59 NW30G38   30.22R
FLAG ISLAND    MOSUNNY   34  19  55 N35G40    30.27R WCI  19
INTL FALLS     LGT SNOW  34  32  92 NW18G25   30.15R FOG     WCI  23
WASKISH        PTSUNNY   37  28  70 NW17G23   30.21R
BIG FORK       MOSUNNY   39  32  75 NW6       30.14F
LONGVILLE      CLOUDY    37  30  75 NW10G16   30.16S
GRAND RAPIDS   CLOUDY    37  32  81 NW15      30.13S
CRANE LAKE     CLOUDY    36  34  93 NW7       30.11F
ORR            CLOUDY    36  30  80 NW7       30.09S
COOK           LGT SNOW  34  32  93 NW8G16    30.11R WCI  27
WALKER         CLOUDY    37  28  70 NW6G16    30.19R
$$
MNZ012-019>021-037-302100-
   Northeast Minnesota

CITY           SKY/WX    TMP DP  RH WIND       PRES   REMARKS
DULUTH         CLOUDY    41  31  67 NW15      30.07S
ELY            RAIN      36  32  87 NW13G21   30.07R
HIBBING        LGT RAIN  38  32  79 NW20      30.11R
EVELETH        LGT RAIN  37  32  81 NW14G25   30.10
DULUTH HARBOR  CLOUDY    45  36  70 NW15      30.10S
TWO HARBORS    PTSUNNY   45  36  70 NW8       30.04F
SILVER BAY     PTSUNNY   45  34  65 W5        30.02F
GRAND MARAIS     N/A     42  35  76 N7G23     30.02S
G MARAIS ARPRT PTSUNNY   34  28  80 NW7G22    30.00R WCI  28
$$
MNZ029>031-032-039>041-046>048-054>057-064-302100-
   West Central Minnesota

CITY           SKY/WX    TMP DP  RH WIND       PRES   REMARKS
FERGUS FALLS   CLOUDY    37  28  70 N16G32    30.27R
WHEATON        CLOUDY    37  30  75 NW22G30   30.29R
MORRIS         SUNNY     43  36  75 N21G33    30.21R
ALEXANDRIA     CLOUDY    42  33  70 N16G25    30.20R
ELBOW LAKE     CLOUDY    40  32  73 N22       30.23R
WADENA         CLOUDY    37  28  70 N18       30.20R
GLENWOOD       MOSUNNY   43  36  75 NW17G23   30.18R
APPLETON       CLOUDY    45  37  76 N24G31    30.21R
BENSON         CLOUDY    45  37  76 N14G20    30.20R
ORTONVILLE     CLOUDY    41  34  75 N21G30    30.24R
MADISON        MOSUNNY   46  41  81 N21G28    30.21R
WILLMAR        CLOUDY    46  37  71 N13       30.18R
$$
MNZ033>034-036-042>043-049>051-058-059-302100-
   Central Minnesota

CITY           SKY/WX    TMP DP  RH WIND       PRES   REMARKS
ST CLOUD       CLOUDY    46  37  71 NW13      30.14R
SAUK CENTRE    CLOUDY    42  33  72 N12G17    30.17R
PAYNESVILLE    CLOUDY    41  36  80 NW12      30.16S
AITKIN         CLOUDY    43  34  70 NW9G18    30.13R
PINE RIVER     CLOUDY    39  30  70 NW15G21   30.20R
BRAINERD       CLOUDY    40  31  70 N14       30.16R
STAPLES        CLOUDY    39  28  65 NW16G24   30.19R
LONG PRAIRIE   CLOUDY    41  32  70 NW15      30.18R
LITTLE FALLS   CLOUDY    41  32  70 NW9       30.16R
LITCHFIELD     CLOUDY    46  39  76 N12       30.14S
BUFFALO        CLOUDY    46  35  64 NW6       30.13S
MAPLE LAKE     CLOUDY    47  38  71 NW12      30.14R
$$
MNZ037-044-045-052-053-302100-
   East Central Minnesota

CITY           SKY/WX    TMP DP  RH WIND       PRES   REMARKS
PRINCETON      CLOUDY    45  37  76 N9        30.13R
MORA           CLOUDY    41  32  70 NW12G17   30.14S
CAMBRIDGE      DRIZZLE   45  36  70 NW5       30.11R
RUSH CITY      CLOUDY    42  34  73 N6        30.12S
HINCKLEY       CLOUDY    43  34  70 CALM      30.11F
CLOQUET        CLOUDY    41  30  65 NW13G18   30.09S
MCGREGOR       CLOUDY    41  32  70 NW14G20   30.13S
$$
MNZ071>073-080-081-089-090-097-098-302100-
   Southwest Minnesota

CITY           SKY/WX    TMP DP  RH WIND       PRES   REMARKS
MONTEVIDEO     CLOUDY    43  41  93 N20G25    30.20R
GRANITE FALLS  CLOUDY    44  40  85 NW13      30.20R FOG
CANBY          CLOUDY    42  40  93 N15G22    30.22R FOG
MARSHALL       CLOUDY    45  36  70 N22       30.16R
REDWOOD FALLS  CLOUDY    48  39  71 N15G21    30.14R
OLIVIA         PTSUNNY   46  41  81 N16       30.14R
PIPESTONE      CLOUDY    48  37  66 N16G24    30.16R
WINDOM         PTSUNNY   52  37  58 N20       30.11R
WORTHINGTON    PTSUNNY   52  37  58 N20G25    30.12R
JACKSON        CLOUDY    54  36  50 VRB15G22  30.10R
TRACY          CLOUDY    47  40  75 N17       30.16R
SLAYTON        CLOUDY    47  39  74 N20G28    30.15R
$$
MNZ065>067-074>077-082>085-091>093-302100-
   South Central Minnesota

CITY           SKY/WX    TMP DP  RH WIND       PRES   REMARKS
MANKATO        CLOUDY    48  34  57 N12       30.10R
NEW ULM        SUNNY     50  39  66 N9G16     30.11R
ST JAMES       PTSUNNY   54  37  54 N13G21    30.11R
FAIRMONT       CLOUDY    55  25  30 N18       30.08R
GLENCOE        PTSUNNY   49  40  69 N8        30.11S
FARIBAULT      CLOUDY    46  37  71 N6        30.09S
OWATONNA       SUNNY     48  37  66 N9        30.08S
WASECA         CLOUDY    48  34  57 N10       30.09F
ALBERT LEA     CLOUDY    52  36  54 CALM      30.06S
$$
MNZ078>079-086>088-094>096-302100-
   Southeast Minnesota

CITY           SKY/WX    TMP DP  RH WIND       PRES   REMARKS
ROCHESTER      CLOUDY    47  37  68 N8        30.07S
RED WING       CLOUDY    48  37  66 W6        30.07F
STANTON        CLOUDY    47  37  70 N5        30.08S
DODGE CENTER   CLOUDY    46  39  76 N6        30.07S
WINONA         CLOUDY    48  41  76 CALM      30.07S
AUSTIN         CLOUDY    48  37  66 CALM      30.06S
PRESTON        CLOUDY    47  37  69 NW3       30.06S
$$
ABBREVIATIONS USED IN REMARKS
   TC - TEMPERATURES IN CELSIUS
  WCI - WIND CHILL INDEX
   HX - HEAT INDEX
  VSB - VISIBILITY
$$



USA.gov is the U.S. government's official web portal to all federal, state and local government web resources and services.